Location: Unspecified
(46.9000°N, 7.4000°E)
Time: 18:48:57
(UTC+00:00)

Daily predictions for brighter satellites

Satellite Brightness Start Highest point End
(mag) Time Altitude Azimuth Time Altitude Azimuth Time Altitude Azimuth
Cosmos 1634 Rocket 4.3 16:07:05 10° SSE 16:12:59 48° E 16:18:51 10° NNE
Cosmos 2026 Rocket 4.0 16:07:20 10° N 16:13:32 71° E 16:19:48 10° SSE
Meteor 2-3 Rocket 3.9 16:07:58 10° NNW 16:13:36 82° W 16:19:10 10° S
JB-3 4.5 16:12:30 10° N 16:16:11 68° WNW 16:19:47 10° SSW
Cosmos 2228 3.5 16:14:07 10° SSE 16:18:01 38° E 16:21:58 10° NNE
CBERS-1 4.0 16:15:22 10° SSE 16:20:29 78° ENE 16:25:36 10° NNW
Cosmos 405 Rocket 3.4 16:18:04 10° NNE 16:20:48 24° ENE 16:23:31 10° SE
Cosmos 1626 Rocket 4.2 16:20:37 10° N 16:24:33 32° ENE 16:28:26 10° SE
Thor Agena Rocket 3.6 16:20:19 10° SSE 16:25:29 64° ENE 16:30:38 10° N
Cosmos 1892 Rocket 3.7 16:21:22 10° N 16:25:50 83° W 16:30:16 10° S
Cosmos 1356 Rocket 3.4 16:26:24 10° S 16:30:21 59° E 16:34:22 10° NNE
ARIANE 6 FM1 Upper Stage 2.6 16:28:49 10° NW 16:32:48 84° SW 16:36:50 10° SE
Cosmos 292 Rocket 4.1 16:28:28 10° SSW 16:33:14 70° WNW 16:38:03 10° NNE
Cosmos 158 Rocket 4.5 16:28:26 10° NNW 16:33:26 63° WSW 16:38:17 10° S
Cosmos 2279 Rocket 4.3 16:27:34 10° SSE 16:33:27 47° E 16:39:22 10° NNE
Cosmos 1092 Rocket 4.0 16:27:29 10° N 16:33:42 86° E 16:39:50 10° S
Cosmos 1315 Rocket 2.6 16:31:54 10° S 16:35:42 72° E 16:39:32 10° NNE
CZ-4C R/B 3.5 16:30:09 10° NNW 16:36:01 34° NNE 16:43:11 10° E
BlueWalker 3 2.3 16:33:57 10° NW 16:37:25 40° NNE 16:40:31 12° E
Cosmos 1484 Rocket 3.5 16:37:15 10° S 16:40:41 52° W 16:44:09 10° NNW
Cosmos 1544 Rocket 4.0 16:37:12 10° SSE 16:41:17 39° E 16:45:24 10° NNE
NOSS 3-2 (A) 3.4 16:37:09 10° SSW 16:41:51 48° ESE 16:47:01 12° NE
Cosmos 2263 Rocket 3.9 16:39:53 10° N 16:42:31 13° NE 16:44:07 12° NE
SJ-12 3.9 16:42:03 10° SE 16:45:40 46° ENE 16:49:19 10° N
IRS-P3 4.4 16:40:40 10° SE 16:45:41 44° ENE 16:50:43 10° N
SAR-Lupe-4 3.7 16:42:29 10° SSE 16:45:57 51° ENE 16:49:25 10° N
Cosmos 2227 Rocket 3.4 16:44:17 10° N 16:48:26 20° NE 16:51:16 14° E
Intercosmos 24 3.7 16:46:17 10° N 16:50:30 67° ENE 16:54:01 10° SSE
SAR-Lupe-1 4.2 16:47:55 10° SSE 16:51:24 51° ENE 16:54:56 10° N
Cosmos 1733 2.5 16:52:20 27° E 16:52:20 27° E 16:53:53 10° SE
Cosmos 2369 Rocket 3.8 16:48:17 10° WSW 16:53:10 30° NW 16:58:08 10° N
USA 290 3.6 16:52:08 10° N 16:54:36 20° ENE 16:54:36 20° ENE
CORIOLIS 4.2 16:49:57 10° SSE 16:55:17 85° WSW 17:00:40 10° NNW
BREEZE M DEB (TANK) 3.7 16:40:58 10° WNW 16:55:38 89° NNE 16:59:19 12° ESE
SL-16 R/B 3.1 16:51:03 10° N 16:57:10 60° WNW 17:03:14 10° SW
CZ-2D R/B 2.6 16:54:39 10° SSE 16:57:44 64° ENE 17:00:52 10° N
Cosmos 2151 3.4 16:56:05 10° N 16:59:57 36° ENE 17:03:48 10° SE
Cosmos 1455 Rocket 4.4 16:56:27 10° SW 17:00:29 39° WNW 17:04:35 10° N
Cosmos 1602 Rocket 3.9 16:57:40 10° N 17:01:52 42° ENE 17:06:01 10° SSE
IRIDIUM 103 4.5 16:57:30 10° N 17:02:35 49° E 17:07:37 10° SSE
Meteor 1-28 Rocket 4.3 16:59:27 10° N 17:02:36 38° WNW 17:05:43 10° SW
Cosmos 1782 2.5 17:00:14 10° S 17:03:47 62° E 17:07:21 10° NNE
Lacrosse 5 rocket 1.3 17:00:42 10° WSW 17:04:25 63° NW 17:06:43 21° NE
Meteor 1-20 Rocket 4.4 16:59:55 10° N 17:05:11 45° ENE 17:10:23 10° SE
Cosmos 1743 2.4 17:05:13 10° N 17:08:24 48° ENE 17:11:33 10° SSE
Cosmos 1570 Rocket 4.0 17:03:46 10° NNW 17:09:08 86° ENE 17:14:28 10° SSE
Cosmos 1697 Rocket 3.8 17:05:40 10° SSE 17:09:53 22° E 17:11:02 21° E
Cosmos 2266 Rocket 4.0 17:04:11 10° N 17:10:15 53° ENE 17:16:10 10° SSE
Cosmos 1777 Rocket 4.5 17:07:07 10° S 17:11:58 39° ESE 17:15:05 20° NE
NOSS 2-2 (C) 3.1 17:09:23 10° SW 17:12:38 57° NW 17:14:14 24° NNE
YAOGAN 1 3.1 17:13:39 10° SE 17:17:31 35° ENE 17:21:24 10° N
SMAP 3.9 17:13:50 10° S 17:18:23 54° W 17:22:58 10° NNW
COSMO-SKYMED 1 3.2 17:19:05 29° E 17:19:24 29° E 17:22:59 10° SSE
IRIDIUM 106 4.2 17:15:43 10° N 17:20:57 71° E 17:26:09 10° S
PSLV R/B 4.0 17:21:32 31° E 17:21:59 32° ENE 17:25:37 10° N
Cosmos 1486 Rocket 4.0 17:18:36 10° S 17:23:43 64° ESE 17:27:28 19° NNE
Cosmos 1607 4.0 17:18:51 10° NNW 17:25:00 58° NE 17:30:36 13° SE
Landsat 7 4.3 17:20:36 10° S 17:25:12 60° W 17:29:49 10° NNW
BREEZE-M DEB (TANK) 3.6 17:22:32 10° WNW 17:25:42 66° N 17:30:10 24° E
Lacrosse 4 Rocket 3.0 17:22:27 10° WSW 17:26:03 29° NW 17:29:11 12° N
SL-19 R/B 4.4 17:23:08 10° SE 17:28:10 46° ENE 17:33:26 10° N
ATLAS CENTAUR R/B 0.9 17:25:20 10° NNW 17:28:21 48° NE 17:28:21 48° NE
Meteor 1-25 Rocket 4.3 17:24:16 10° N 17:30:01 57° ENE 17:35:42 10° SSE
NOSS 3-3 (A) 4.5 17:24:12 10° NW 17:31:34 75° NE 17:40:18 10° SE
Cosmos 724 4.3 17:28:26 10° NNW 17:34:30 65° NE 17:39:24 15° SE
SPOT 1/Viking Rocket 3.4 17:29:58 10° SSE 17:35:10 77° ENE 17:40:23 10° N
MOS 1 Rocket 3.7 17:31:56 10° S 17:36:39 69° W 17:41:41 10° NNW
Cosmos 1825 Rocket 3.7 17:32:35 10° N 17:36:50 48° ENE 17:41:01 10° SSE
Cosmos 1758 Rocket 4.3 17:32:44 10° NNW 17:36:57 52° W 17:41:06 10° S
CZ-4 R/B 4.2 17:33:57 10° SSE 17:37:54 87° ENE 17:41:52 10° NNW
NOAA 6 4.3 17:33:35 10° SE 17:38:24 44° ENE 17:43:14 10° N
Cosmos 2098 Rocket 3.3 17:35:30 10° SSW 17:39:09 61° WNW 17:43:31 10° N
ARIANE 5 R/B 3.5 17:34:24 10° S 17:39:13 47° W 17:44:10 10° NNW
CZ-2D R/B 3.3 17:35:22 10° SSE 17:39:33 71° ENE 17:43:45 10° N
Cosmos 2208 Rocket 4.2 17:35:17 10° NNW 17:40:26 72° WSW 17:45:35 10° SSE
Cosmos 2084 Rocket 4.1 17:37:37 10° NNW 17:41:09 36° NNE 17:41:09 36° NNE
Cosmos 2297 Rocket 2.1 17:36:50 10° NNW 17:42:34 86° ENE 17:48:13 10° SSE
CENTAUR R/B 3.5 17:38:32 10° WSW 17:44:04 40° NNW 17:49:09 17° NNE
Cosmos 773 Rocket 4.3 17:38:53 10° NNW 17:44:04 68° WSW 17:49:14 10° S
USA 215 3.6 17:45:59 33° ENE 17:48:25 47° NNE 17:54:38 10° NW
Cosmos 1655 Rocket 4.0 17:44:39 10° N 17:50:51 58° ENE 17:56:57 10° SSE
Meteor 1-5 Rocket 4.1 17:47:07 10° N 17:52:21 55° ENE 17:57:38 10° SSE
Cosmos 1900 4.4 17:49:37 10° NNW 17:54:35 53° NE 17:54:49 53° ENE
Cosmos 1656 4.0 17:49:25 10° SW 17:54:58 64° WNW 17:58:48 21° NNE
Cosmos 990 Rocket 4.1 17:55:31 10° S 18:00:04 50° ESE 18:00:04 50° ESE
Okean 1-7 Rocket 4.1 18:04:48 10° NNW 18:09:08 57° W 18:13:24 10° S
NOSS 2-2 (D) 4.5 18:06:46 10° WSW 18:09:17 29° WNW 18:09:17 29° WNW
Cosmos 1606 Rocket 3.6 18:05:36 10° SSW 18:09:58 77° W 18:10:49 57° NNW
Cosmos 1980 Rocket 3.9 18:05:30 10° SSE 18:07:09 18° SSE 18:07:09 18° SSE
Cosmos 1461 3.9 18:07:49 10° SSW 18:10:11 35° SSW 18:10:11 35° SSW
Resurs 1-3 3.9 18:10:16 10° S 18:14:31 64° W 18:18:49 10° NNW
BlueWalker 3 2.9 18:11:30 10° WNW 18:14:18 43° W 18:14:18 43° W
Meteor 2-20 4.3 18:16:35 10° S 18:22:44 80° E 18:25:00 42° NNE
CZ-4C R/B 2.9 18:18:01 10° NW 18:25:05 87° SW 18:29:51 30° SE
Cosmos 2263 Rocket 3.1 18:22:15 10° NNW 18:25:49 36° N 18:25:49 36° N
Cosmos 1503 Rocket 4.5 18:23:36 10° SW 18:28:46 57° WNW 18:30:10 43° NNW
NOSS 3-2 (C) 3.1 18:23:53 10° SW 18:28:55 75° NW 18:29:22 70° N
NOSS 3-2 (A) 4.3 18:27:54 10° WSW 18:32:45 37° NW 18:34:23 31° N
Cosmos 2227 Rocket 2.1 18:27:33 10° NNW 18:33:08 86° WNW 18:33:08 86° WNW
Cosmos 1354 Rocket 4.1 18:28:58 10° SSW 18:34:14 72° WNW 18:34:18 72° WNW
Cosmos 1726 Rocket 4.4 18:33:28 10° SSW 18:37:32 52° WSW 18:37:32 52° WSW
Lacrosse 5 rocket 3.8 18:39:09 10° WNW 18:40:19 16° NW 18:40:19 16° NW
Cosmos 1867 3.9 18:39:26 10° NW 18:44:08 63° WNW 18:44:08 63° WNW
Cosmos 1697 Rocket 3.1 18:47:46 10° SW 18:52:48 59° W 18:52:48 59° W
COSMO-SKYMED 1 4.5 18:55:26 26° W 18:55:26 26° W 18:58:09 10° SW
USA 215 4.0 19:33:20 46° WNW 19:33:20 46° WNW 19:37:45 10° NW
CENTAUR R/B 4.5 19:31:37 10° WNW 19:36:15 23° NNW 19:36:15 23° NNW
